Hourly Data Report for June 20, 2021

MANIWAKI AIRPORT
QUEBEC
Current Station Operator: ECCC - MSC

46°16'29.000" N
75°59'31.000" W
199.70 m
7034482
71721
WMJ

Download Data

Hourly Data (June 2021)
Hourly Data Report for June 20, 2021
TIME
LST
Temp Definition
°C
Dew Point Definition
°C
Rel Hum Definition
%
Precip. Amount Definition
mm

Wind Dir Definition
10's deg

Wind Spd Definition
km/h
Visibility Definition
km
Stn Press Definition
kPa
Hmdx Definition


Wind Chill Definition


Weather Definition


00:00 10.9 10.2 95 0.0   0   98.33     LegendNANA
01:00 10.9 10.7 99 0.0 2 3   98.32     LegendNANA
02:00 10.1 9.9 99 0.0 35 3   98.32     LegendNANA
03:00 9.5 9.3 99 0.0 21 3   98.37     LegendNANA
04:00 9.3 9.2 99 0.0   0   98.38     LegendNANA
05:00 9.6 9.4 98 0.0   0   98.39     LegendNANA
06:00 14.2 12.6 90 0.0 4 4   98.41     LegendNANA
07:00 15.6 12.4 81 0.0 19 1   98.43     LegendNANA
08:00 17.8 12.5 71 0.0 23 1   98.44     LegendNANA
09:00 19.2 12.5 65 0.0 19 5   98.45     LegendNANA
10:00 21.3 13.3 60 0.0 26 7   98.42     LegendNANA
11:00 22.9 12.6 52 0.0 21 7   98.35 25   LegendNANA
12:00 23.8 12.9 51 0.0 23 11   98.31 27   LegendNANA
13:00 25.8 13.2 46 0.0 21 15   98.23 29   LegendNANA
14:00 26.4 11.6 40 0.0 22 11   98.22 28   LegendNANA
15:00 25.4 11.1 41 0.0 24 12   98.22 27   LegendNANA
16:00 25.6 11.6 41 0.0 23 16   98.18 28   LegendNANA
17:00 26.1 11.6 40 0.0 24 12   98.11 28   LegendNANA
18:00 25.4 12.6 45 0.0 20 9   98.13 28   LegendNANA
19:00 22.8 14.4 59 0.0 21 4   98.14 26   LegendNANA
20:00 18.6 14.6 78 0.0 20 2   98.14     LegendNANA
21:00 16.6 14.6 88 0.0 14 4   98.16     LegendNANA
22:00 14.7 13.1 90 0.0 0 1   98.14     LegendNANA
23:00 14.3 12.9 91 0.0   0   98.14     LegendNANA

Notes on Data Quality.

Legend

  • E = Estimated
  • M = Missing
  • NA = Not Available*
  • [empty] = Indicates an unobserved value
Date modified: